Year,Month,Day,Hour,Minute,Value (Times are PST for temperature in C)
2022,10,17,00,00,14.30
2022,10,17,00,01,14.20
2022,10,17,00,02,14.20
2022,10,17,00,03,14.20
2022,10,17,00,04,14.10
2022,10,17,00,05,14.10
2022,10,17,00,06,14.00
2022,10,17,00,07,14.00
2022,10,17,00,08,13.90
2022,10,17,00,09,13.90
2022,10,17,00,10,13.80
2022,10,17,00,11,13.80
2022,10,17,00,12,13.70
2022,10,17,00,13,13.70
2022,10,17,00,14,13.60
2022,10,17,00,15,13.60
2022,10,17,00,16,13.60
2022,10,17,00,17,13.50
2022,10,17,00,18,13.50
2022,10,17,00,19,13.50
2022,10,17,00,20,13.50
2022,10,17,00,21,13.40
2022,10,17,00,22,13.40
2022,10,17,00,23,13.40
2022,10,17,00,24,13.30
2022,10,17,00,25,13.30
2022,10,17,00,26,13.30
2022,10,17,00,27,13.20
2022,10,17,00,28,13.20
2022,10,17,00,29,13.10
2022,10,17,00,30,13.10
2022,10,17,00,31,13.00
2022,10,17,00,32,13.00
2022,10,17,00,33,12.90
2022,10,17,00,34,12.90
2022,10,17,00,35,12.80
2022,10,17,00,36,12.70
2022,10,17,00,37,12.70
2022,10,17,00,38,12.70
2022,10,17,00,39,12.70
2022,10,17,00,40,12.60
2022,10,17,00,41,12.60
2022,10,17,00,42,12.60
2022,10,17,00,43,12.70
2022,10,17,00,44,12.70
2022,10,17,00,45,12.80
2022,10,17,00,46,12.90
2022,10,17,00,47,13.00
2022,10,17,00,48,13.10
2022,10,17,00,49,13.20
2022,10,17,00,50,13.20
2022,10,17,00,51,13.30
2022,10,17,00,52,13.30
2022,10,17,00,53,13.30
2022,10,17,00,54,13.30
2022,10,17,00,55,13.30
2022,10,17,00,56,13.30
2022,10,17,00,57,13.30
2022,10,17,00,58,13.20
2022,10,17,00,59,13.20
2022,10,17,01,00,13.20
2022,10,17,01,01,13.10
2022,10,17,01,02,13.00
2022,10,17,01,03,13.00
2022,10,17,01,04,12.90
2022,10,17,01,05,12.80
2022,10,17,01,06,12.80
2022,10,17,01,07,12.70
2022,10,17,01,08,12.60
2022,10,17,01,09,12.60
2022,10,17,01,10,12.60
2022,10,17,01,11,12.60
2022,10,17,01,12,12.60
2022,10,17,01,13,12.60
2022,10,17,01,14,12.60
2022,10,17,01,15,12.50
2022,10,17,01,16,12.50
2022,10,17,01,17,12.50
2022,10,17,01,18,12.50
2022,10,17,01,19,12.40
2022,10,17,01,20,12.40
2022,10,17,01,21,12.40
2022,10,17,01,22,12.40
2022,10,17,01,23,12.40
2022,10,17,01,24,12.40
2022,10,17,01,25,12.30
2022,10,17,01,26,12.30
2022,10,17,01,27,12.30
2022,10,17,01,28,12.30
2022,10,17,01,29,12.30
2022,10,17,01,30,12.30
2022,10,17,01,31,12.30
2022,10,17,01,32,12.30
2022,10,17,01,33,12.30
2022,10,17,01,34,12.30
2022,10,17,01,35,12.30
2022,10,17,01,36,12.20
2022,10,17,01,37,12.20
2022,10,17,01,38,12.20
2022,10,17,01,39,12.20
2022,10,17,01,40,12.20
2022,10,17,01,41,12.20
2022,10,17,01,42,12.20
2022,10,17,01,43,12.30
2022,10,17,01,44,12.30
2022,10,17,01,45,12.30
2022,10,17,01,46,12.30
2022,10,17,01,47,12.30
2022,10,17,01,48,12.30
2022,10,17,01,49,12.30
2022,10,17,01,50,12.30
2022,10,17,01,51,12.30
2022,10,17,01,52,12.30
2022,10,17,01,53,12.30
2022,10,17,01,54,12.30
2022,10,17,01,55,12.30
2022,10,17,01,56,12.30
2022,10,17,01,57,12.30
2022,10,17,01,58,12.30
2022,10,17,01,59,12.30
2022,10,17,02,00,12.30
2022,10,17,02,01,12.40
2022,10,17,02,02,12.40
2022,10,17,02,03,12.40
2022,10,17,02,04,12.40
2022,10,17,02,05,12.40
2022,10,17,02,06,12.40
2022,10,17,02,07,12.40
2022,10,17,02,08,12.40
2022,10,17,02,09,12.40
2022,10,17,02,10,12.40
2022,10,17,02,11,12.40
2022,10,17,02,12,12.40
2022,10,17,02,13,12.40
2022,10,17,02,14,12.40
2022,10,17,02,15,12.40
2022,10,17,02,16,12.40
2022,10,17,02,17,12.40
2022,10,17,02,18,12.40
2022,10,17,02,19,12.40
2022,10,17,02,20,12.40
2022,10,17,02,21,12.40
2022,10,17,02,22,12.40
2022,10,17,02,23,12.30
2022,10,17,02,24,12.30
2022,10,17,02,25,12.20
2022,10,17,02,26,12.10
2022,10,17,02,27,12.10
2022,10,17,02,28,12.10
2022,10,17,02,29,12.10
2022,10,17,02,30,12.00
2022,10,17,02,31,12.00
2022,10,17,02,32,11.90
2022,10,17,02,33,11.90
2022,10,17,02,34,11.90
2022,10,17,02,35,11.80
2022,10,17,02,36,11.80
2022,10,17,02,37,11.80
2022,10,17,02,38,11.80
2022,10,17,02,39,11.80
2022,10,17,02,40,11.70
2022,10,17,02,41,11.70
2022,10,17,02,42,11.70
2022,10,17,02,43,11.60
2022,10,17,02,44,11.60
2022,10,17,02,45,11.60
2022,10,17,02,46,11.60
2022,10,17,02,47,11.60
2022,10,17,02,48,11.50
2022,10,17,02,49,11.50
2022,10,17,02,50,11.50
2022,10,17,02,51,11.50
2022,10,17,02,52,11.50
2022,10,17,02,53,11.50
2022,10,17,02,54,11.50
2022,10,17,02,55,11.50
2022,10,17,02,56,11.50
2022,10,17,02,57,11.50
2022,10,17,02,58,11.50
2022,10,17,02,59,11.50
2022,10,17,03,00,11.50
2022,10,17,03,01,11.50
2022,10,17,03,02,11.50
2022,10,17,03,03,11.40
2022,10,17,03,04,11.40
2022,10,17,03,05,11.40
2022,10,17,03,06,11.40
2022,10,17,03,07,11.40
2022,10,17,03,08,11.30
2022,10,17,03,09,11.30
2022,10,17,03,10,11.30
2022,10,17,03,11,11.30
2022,10,17,03,12,11.30
2022,10,17,03,13,11.30
2022,10,17,03,14,11.20
2022,10,17,03,15,11.10
2022,10,17,03,16,11.10
2022,10,17,03,17,11.10
2022,10,17,03,18,11.00
2022,10,17,03,19,10.90
2022,10,17,03,20,10.90
2022,10,17,03,21,10.80
2022,10,17,03,22,10.70
2022,10,17,03,23,10.70
2022,10,17,03,24,10.70
2022,10,17,03,25,10.70
2022,10,17,03,26,10.70
2022,10,17,03,27,10.70
2022,10,17,03,28,10.70
2022,10,17,03,29,10.80
2022,10,17,03,30,10.80
2022,10,17,03,31,10.80
2022,10,17,03,32,10.80
2022,10,17,03,33,10.80
2022,10,17,03,34,10.80
2022,10,17,03,35,10.80
2022,10,17,03,36,10.80
2022,10,17,03,37,10.80
2022,10,17,03,38,10.80
2022,10,17,03,39,10.70
2022,10,17,03,40,10.70
2022,10,17,03,41,10.60
2022,10,17,03,42,10.60
2022,10,17,03,43,10.50
2022,10,17,03,44,10.50
2022,10,17,03,45,10.50
2022,10,17,03,46,10.50
2022,10,17,03,47,10.60
2022,10,17,03,48,10.70
2022,10,17,03,49,10.90
2022,10,17,03,50,11.10
2022,10,17,03,51,11.30
2022,10,17,03,52,11.40
2022,10,17,03,53,11.50
2022,10,17,03,54,11.60
2022,10,17,03,55,11.60
2022,10,17,03,56,11.60
2022,10,17,03,57,11.70
2022,10,17,03,58,11.70
2022,10,17,03,59,11.70
2022,10,17,04,00,11.70
2022,10,17,04,01,11.70
2022,10,17,04,02,11.70
2022,10,17,04,03,11.80
2022,10,17,04,04,11.80
2022,10,17,04,05,11.80
2022,10,17,04,06,11.80
2022,10,17,04,07,11.80
2022,10,17,04,08,11.80
2022,10,17,04,09,11.80
2022,10,17,04,10,11.70
2022,10,17,04,11,11.60
2022,10,17,04,12,11.50
2022,10,17,04,13,11.40
2022,10,17,04,14,11.40
2022,10,17,04,15,11.40
2022,10,17,04,16,11.40
2022,10,17,04,17,11.30
2022,10,17,04,18,11.30
2022,10,17,04,19,11.30
2022,10,17,04,20,11.30
2022,10,17,04,21,11.30
2022,10,17,04,22,11.20
2022,10,17,04,23,11.20
2022,10,17,04,24,11.20
2022,10,17,04,25,11.20
2022,10,17,04,26,11.20
2022,10,17,04,27,11.20
2022,10,17,04,28,11.20
2022,10,17,04,29,11.20
2022,10,17,04,30,11.30
2022,10,17,04,31,11.20
2022,10,17,04,32,11.20
2022,10,17,04,33,11.10
2022,10,17,04,34,11.10
2022,10,17,04,35,11.10
2022,10,17,04,36,11.20
2022,10,17,04,37,11.30
2022,10,17,04,38,11.30
2022,10,17,04,39,11.30
2022,10,17,04,40,11.30
2022,10,17,04,41,11.30
2022,10,17,04,42,11.30
2022,10,17,04,43,11.20
2022,10,17,04,44,11.20
2022,10,17,04,45,11.10
2022,10,17,04,46,11.10
2022,10,17,04,47,11.10
2022,10,17,04,48,11.10
2022,10,17,04,49,11.00
2022,10,17,04,50,11.00
2022,10,17,04,51,10.90
2022,10,17,04,52,10.90
2022,10,17,04,53,10.90
2022,10,17,04,54,10.90
2022,10,17,04,55,10.80
2022,10,17,04,56,10.70
2022,10,17,04,57,10.70
2022,10,17,04,58,10.60
2022,10,17,04,59,10.60
2022,10,17,05,00,10.60
2022,10,17,05,01,10.50
2022,10,17,05,02,10.50
2022,10,17,05,03,10.40
2022,10,17,05,04,10.40
2022,10,17,05,05,10.40
2022,10,17,05,06,10.30
2022,10,17,05,07,10.30
2022,10,17,05,08,10.30
2022,10,17,05,09,10.30
2022,10,17,05,10,10.20
2022,10,17,05,11,10.20
2022,10,17,05,12,10.20
2022,10,17,05,13,10.10
2022,10,17,05,14,10.10
2022,10,17,05,15,10.00
2022,10,17,05,16,10.00
2022,10,17,05,17,9.90
2022,10,17,05,18,9.90
2022,10,17,05,19,9.90
2022,10,17,05,20,9.90
2022,10,17,05,21,10.00
2022,10,17,05,22,10.00
2022,10,17,05,23,9.90
2022,10,17,05,24,9.90
2022,10,17,05,25,10.00
2022,10,17,05,26,10.00
2022,10,17,05,27,9.90
2022,10,17,05,28,9.90
2022,10,17,05,29,9.90
2022,10,17,05,30,9.90
2022,10,17,05,31,9.90
2022,10,17,05,32,9.90
2022,10,17,05,33,9.90
2022,10,17,05,34,9.90
2022,10,17,05,35,9.90
2022,10,17,05,36,9.90
2022,10,17,05,37,9.90
2022,10,17,05,38,9.90
2022,10,17,05,39,9.90
2022,10,17,05,40,9.90
2022,10,17,05,41,9.90
2022,10,17,05,42,9.90
2022,10,17,05,43,9.90
2022,10,17,05,44,10.00
2022,10,17,05,45,10.00
2022,10,17,05,46,10.00
2022,10,17,05,47,10.00
2022,10,17,05,48,9.90
2022,10,17,05,49,9.90
2022,10,17,05,50,9.90
2022,10,17,05,51,9.90
2022,10,17,05,52,9.80
2022,10,17,05,53,9.80
2022,10,17,05,54,9.80
2022,10,17,05,55,9.80
2022,10,17,05,56,9.80
2022,10,17,05,57,9.80
2022,10,17,05,58,9.70
2022,10,17,05,59,9.70
2022,10,17,06,00,9.70
2022,10,17,06,01,9.70
2022,10,17,06,02,9.80
2022,10,17,06,03,9.80
2022,10,17,06,04,9.80
2022,10,17,06,05,9.80
2022,10,17,06,06,9.80
2022,10,17,06,07,9.80
2022,10,17,06,08,9.80
2022,10,17,06,09,9.70
2022,10,17,06,10,9.70
2022,10,17,06,11,9.70
2022,10,17,06,12,9.60
2022,10,17,06,13,9.60
2022,10,17,06,14,9.60
2022,10,17,06,15,9.60
2022,10,17,06,16,9.50
2022,10,17,06,17,9.50
2022,10,17,06,18,9.50
2022,10,17,06,19,9.50
2022,10,17,06,20,9.50
2022,10,17,06,21,9.60
2022,10,17,06,22,9.60
2022,10,17,06,23,9.60
2022,10,17,06,24,9.60
2022,10,17,06,25,9.70
2022,10,17,06,26,9.70
2022,10,17,06,27,9.80
2022,10,17,06,28,9.80
2022,10,17,06,29,9.90
2022,10,17,06,30,9.90
2022,10,17,06,31,10.00
2022,10,17,06,32,10.00
2022,10,17,06,33,10.10
2022,10,17,06,34,10.10
2022,10,17,06,35,10.10
2022,10,17,06,36,10.00
2022,10,17,06,37,9.90
2022,10,17,06,38,9.80
2022,10,17,06,39,9.80
2022,10,17,06,40,9.70
2022,10,17,06,41,9.70
2022,10,17,06,42,9.60
2022,10,17,06,43,9.60
2022,10,17,06,44,9.60
2022,10,17,06,45,9.60
2022,10,17,06,46,9.60
2022,10,17,06,47,9.60
2022,10,17,06,48,9.60
2022,10,17,06,49,9.60
2022,10,17,06,50,9.60
2022,10,17,06,51,9.60
2022,10,17,06,52,9.60
2022,10,17,06,53,9.60
2022,10,17,06,54,9.60
2022,10,17,06,55,9.60
2022,10,17,06,56,9.60
2022,10,17,06,57,9.60
2022,10,17,06,58,9.60
2022,10,17,06,59,9.60
2022,10,17,07,00,9.60
2022,10,17,07,01,9.70
2022,10,17,07,02,9.70
2022,10,17,07,03,9.70
2022,10,17,07,04,9.70
2022,10,17,07,05,9.70
2022,10,17,07,06,9.70
2022,10,17,07,07,9.70
2022,10,17,07,08,9.70
2022,10,17,07,09,9.70
2022,10,17,07,10,9.70
2022,10,17,07,11,9.70
2022,10,17,07,12,9.70
2022,10,17,07,13,9.80
2022,10,17,07,14,9.80
2022,10,17,07,15,9.80
2022,10,17,07,16,9.80
2022,10,17,07,17,9.80
2022,10,17,07,18,9.80
2022,10,17,07,19,9.80
2022,10,17,07,20,9.80
2022,10,17,07,21,9.80
2022,10,17,07,22,9.80
2022,10,17,07,23,9.70
2022,10,17,07,24,9.70
2022,10,17,07,25,9.70
2022,10,17,07,26,9.70
2022,10,17,07,27,9.70
2022,10,17,07,28,9.70
2022,10,17,07,29,9.70
2022,10,17,07,30,9.70
2022,10,17,07,31,9.70
2022,10,17,07,32,9.70
2022,10,17,07,33,9.70
2022,10,17,07,34,9.70
2022,10,17,07,35,9.70
2022,10,17,07,36,9.80
2022,10,17,07,37,9.80
2022,10,17,07,38,9.80
2022,10,17,07,39,9.80
2022,10,17,07,40,9.80
2022,10,17,07,41,9.80
2022,10,17,07,42,9.90
2022,10,17,07,43,9.90
2022,10,17,07,44,9.90
2022,10,17,07,45,9.90
2022,10,17,07,46,9.90
2022,10,17,07,47,9.90
2022,10,17,07,48,9.90
2022,10,17,07,49,9.90
2022,10,17,07,50,9.80
2022,10,17,07,51,9.80
2022,10,17,07,52,9.80
2022,10,17,07,53,9.80
2022,10,17,07,54,9.80
2022,10,17,07,55,9.80
2022,10,17,07,56,9.80
2022,10,17,07,57,9.90
2022,10,17,07,58,9.90
2022,10,17,07,59,9.90
2022,10,17,08,00,9.90
2022,10,17,08,01,9.90
2022,10,17,08,02,9.90
2022,10,17,08,03,9.90
2022,10,17,08,04,9.90
2022,10,17,08,05,9.90
2022,10,17,08,06,9.90
2022,10,17,08,07,9.90
2022,10,17,08,08,9.90
2022,10,17,08,09,9.90
2022,10,17,08,10,9.90
2022,10,17,08,11,9.90
2022,10,17,08,12,9.90
2022,10,17,08,13,9.90
2022,10,17,08,14,9.90
2022,10,17,08,15,9.90
2022,10,17,08,16,9.90
2022,10,17,08,17,9.90
2022,10,17,08,18,9.90
2022,10,17,08,19,9.90
2022,10,17,08,20,9.90
2022,10,17,08,21,10.00
2022,10,17,08,22,10.00
2022,10,17,08,23,10.00
2022,10,17,08,24,10.00
2022,10,17,08,25,10.00
2022,10,17,08,26,10.00
2022,10,17,08,27,10.00
2022,10,17,08,28,10.00
2022,10,17,08,29,10.00
2022,10,17,08,30,10.00
2022,10,17,08,31,10.00
2022,10,17,08,32,10.00
2022,10,17,08,33,10.00
2022,10,17,08,34,9.90
2022,10,17,08,35,10.00
2022,10,17,08,36,10.00
2022,10,17,08,37,10.00
2022,10,17,08,38,10.00
2022,10,17,08,39,10.10
2022,10,17,08,40,10.10
2022,10,17,08,41,10.10
2022,10,17,08,42,10.20
2022,10,17,08,43,10.30
2022,10,17,08,44,10.30
2022,10,17,08,45,10.40
2022,10,17,08,46,10.40
2022,10,17,08,47,10.50
2022,10,17,08,48,10.50
2022,10,17,08,49,10.60
2022,10,17,08,50,10.70
2022,10,17,08,51,10.70
2022,10,17,08,52,10.80
2022,10,17,08,53,10.80
2022,10,17,08,54,10.80
2022,10,17,08,55,10.90
2022,10,17,08,56,10.90
2022,10,17,08,57,11.00
2022,10,17,08,58,11.00
2022,10,17,08,59,11.10
2022,10,17,09,00,11.20
2022,10,17,09,01,11.30
2022,10,17,09,02,11.40
2022,10,17,09,03,11.40
2022,10,17,09,04,11.50
2022,10,17,09,05,11.60
2022,10,17,09,06,11.70
2022,10,17,09,07,11.70
2022,10,17,09,08,11.80
2022,10,17,09,09,11.90
2022,10,17,09,10,11.90
2022,10,17,09,11,12.00
2022,10,17,09,12,12.10
2022,10,17,09,13,12.10
2022,10,17,09,14,12.10
2022,10,17,09,15,12.20
2022,10,17,09,16,12.20
2022,10,17,09,17,12.20
2022,10,17,09,18,12.30
2022,10,17,09,19,12.30
2022,10,17,09,20,12.30
2022,10,17,09,21,12.30
2022,10,17,09,22,12.40
2022,10,17,09,23,12.40
2022,10,17,09,24,12.50
2022,10,17,09,25,12.50
2022,10,17,09,26,12.60
2022,10,17,09,27,12.60
2022,10,17,09,28,12.60
2022,10,17,09,29,12.70
2022,10,17,09,30,12.70
2022,10,17,09,31,12.80
2022,10,17,09,32,12.80
2022,10,17,09,33,12.80
2022,10,17,09,34,12.80
2022,10,17,09,35,12.90
2022,10,17,09,36,12.90
2022,10,17,09,37,12.90
2022,10,17,09,38,13.00
2022,10,17,09,39,13.00
2022,10,17,09,40,13.00
2022,10,17,09,41,13.10
2022,10,17,09,42,13.10
2022,10,17,09,43,13.10
2022,10,17,09,44,13.10
2022,10,17,09,45,13.20
2022,10,17,09,46,13.20
2022,10,17,09,47,13.30
2022,10,17,09,48,13.40
2022,10,17,09,49,13.40
2022,10,17,09,50,13.40
2022,10,17,09,51,13.40
2022,10,17,09,52,13.50
2022,10,17,09,53,13.50
2022,10,17,09,54,13.60
2022,10,17,09,55,13.60
2022,10,17,09,56,13.60
2022,10,17,09,57,13.60
2022,10,17,09,58,13.70
2022,10,17,09,59,13.70
2022,10,17,10,00,13.70
2022,10,17,10,01,13.80
2022,10,17,10,02,13.80
2022,10,17,10,03,13.80
2022,10,17,10,04,13.80
2022,10,17,10,05,13.90
2022,10,17,10,06,13.90
2022,10,17,10,07,14.00
2022,10,17,10,08,14.00
2022,10,17,10,09,14.10
2022,10,17,10,10,14.10
2022,10,17,10,11,14.20
2022,10,17,10,12,14.30
2022,10,17,10,13,14.30
2022,10,17,10,14,14.40
2022,10,17,10,15,14.50
2022,10,17,10,16,14.50
2022,10,17,10,17,14.60
2022,10,17,10,18,14.60
2022,10,17,10,19,14.70
2022,10,17,10,20,14.70
2022,10,17,10,21,14.70
2022,10,17,10,22,14.80
2022,10,17,10,23,14.80
2022,10,17,10,24,14.80
2022,10,17,10,25,14.90
2022,10,17,10,26,14.90
2022,10,17,10,27,14.90
2022,10,17,10,28,15.00
2022,10,17,10,29,15.00
2022,10,17,10,30,15.10
2022,10,17,10,31,15.10
2022,10,17,10,32,15.20
2022,10,17,10,33,15.30
2022,10,17,10,34,15.30
2022,10,17,10,35,15.40
2022,10,17,10,36,15.40
2022,10,17,10,37,15.40
2022,10,17,10,38,15.50
2022,10,17,10,39,15.50
2022,10,17,10,40,15.50
2022,10,17,10,41,15.60
2022,10,17,10,42,15.60
2022,10,17,10,43,15.60
2022,10,17,10,44,15.70
2022,10,17,10,45,15.70
2022,10,17,10,46,15.70
2022,10,17,10,47,15.80
2022,10,17,10,48,15.80
2022,10,17,10,49,15.90
2022,10,17,10,50,15.90
2022,10,17,10,51,15.90
2022,10,17,10,52,15.90
2022,10,17,10,53,15.90
2022,10,17,10,54,15.90
2022,10,17,10,55,15.90
2022,10,17,10,56,15.80
2022,10,17,10,57,15.80
2022,10,17,10,58,15.80
2022,10,17,10,59,15.70
2022,10,17,11,00,15.70
2022,10,17,11,01,15.70
2022,10,17,11,02,15.60
2022,10,17,11,03,15.60
2022,10,17,11,04,15.60
2022,10,17,11,05,15.60
2022,10,17,11,06,15.60
2022,10,17,11,07,15.50
2022,10,17,11,08,15.40
2022,10,17,11,09,15.40
2022,10,17,11,10,15.40
2022,10,17,11,11,15.30
2022,10,17,11,12,15.30
2022,10,17,11,13,15.30
2022,10,17,11,14,15.30
2022,10,17,11,15,15.30
2022,10,17,11,16,15.30
2022,10,17,11,17,15.30
2022,10,17,11,18,15.30
2022,10,17,11,19,15.30
2022,10,17,11,20,15.40
2022,10,17,11,21,15.40
2022,10,17,11,22,15.40
2022,10,17,11,23,15.40
2022,10,17,11,24,15.40
2022,10,17,11,25,15.30
2022,10,17,11,26,15.30
2022,10,17,11,27,15.30
2022,10,17,11,28,15.30
2022,10,17,11,29,15.30
2022,10,17,11,30,15.20
2022,10,17,11,31,15.00
2022,10,17,11,32,15.00
2022,10,17,11,33,15.00
2022,10,17,11,34,15.00
2022,10,17,11,35,15.00
2022,10,17,11,36,15.00
2022,10,17,11,37,15.00
2022,10,17,11,38,15.10
2022,10,17,11,39,15.00
2022,10,17,11,40,15.00
2022,10,17,11,41,14.90
2022,10,17,11,42,14.90
2022,10,17,11,43,14.90
2022,10,17,11,44,14.90
2022,10,17,11,45,14.80
2022,10,17,11,46,14.80
2022,10,17,11,47,14.80
2022,10,17,11,48,14.80
2022,10,17,11,49,14.80
2022,10,17,11,50,14.70
2022,10,17,11,51,14.70
2022,10,17,11,52,14.60
2022,10,17,11,53,14.50
2022,10,17,11,54,14.50
2022,10,17,11,55,14.40
2022,10,17,11,56,14.30
2022,10,17,11,57,14.30
2022,10,17,11,58,14.20
2022,10,17,11,59,14.20
2022,10,17,12,00,14.10
2022,10,17,12,01,14.10
2022,10,17,12,02,14.10
2022,10,17,12,03,14.10
2022,10,17,12,04,14.20
2022,10,17,12,05,14.20
2022,10,17,12,06,14.20
2022,10,17,12,07,14.10
2022,10,17,12,08,14.10
2022,10,17,12,09,14.10
2022,10,17,12,10,14.10
2022,10,17,12,11,14.10
2022,10,17,12,12,14.10
2022,10,17,12,13,14.00
2022,10,17,12,14,13.90
2022,10,17,12,15,13.90
2022,10,17,12,16,13.90
2022,10,17,12,17,13.80
2022,10,17,12,18,13.80
2022,10,17,12,19,13.80
2022,10,17,12,20,13.80
2022,10,17,12,21,13.90
2022,10,17,12,22,13.90
2022,10,17,12,23,14.00
2022,10,17,12,24,14.00
2022,10,17,12,25,14.00
2022,10,17,12,26,14.10
2022,10,17,12,27,14.10
2022,10,17,12,28,14.10
2022,10,17,12,29,14.10
2022,10,17,12,30,14.10
2022,10,17,12,31,14.10
2022,10,17,12,32,14.00
2022,10,17,12,33,14.00
2022,10,17,12,34,14.10
2022,10,17,12,35,14.10
2022,10,17,12,36,14.20
2022,10,17,12,37,14.20
2022,10,17,12,38,14.10
2022,10,17,12,39,14.10
2022,10,17,12,40,14.10
2022,10,17,12,41,14.10
2022,10,17,12,42,14.10
2022,10,17,12,43,14.10
2022,10,17,12,44,14.10
2022,10,17,12,45,14.10
2022,10,17,12,46,14.10
2022,10,17,12,47,14.10
2022,10,17,12,48,14.10
2022,10,17,12,49,14.20
2022,10,17,12,50,14.20
2022,10,17,12,51,14.20
2022,10,17,12,52,14.20
2022,10,17,12,53,14.20
2022,10,17,12,54,14.20
2022,10,17,12,55,14.10
2022,10,17,12,56,14.10
2022,10,17,12,57,14.10
2022,10,17,12,58,14.10
2022,10,17,12,59,14.10
2022,10,17,13,00,14.10
2022,10,17,13,01,14.10
2022,10,17,13,02,14.10
2022,10,17,13,03,14.10
2022,10,17,13,04,14.00
2022,10,17,13,05,13.90
2022,10,17,13,06,13.90
2022,10,17,13,07,13.90
2022,10,17,13,08,13.90
2022,10,17,13,09,13.90
2022,10,17,13,10,13.90
2022,10,17,13,11,13.90
2022,10,17,13,12,13.90
2022,10,17,13,13,13.80
2022,10,17,13,14,13.80
2022,10,17,13,15,13.80
2022,10,17,13,16,13.80
2022,10,17,13,17,13.90
2022,10,17,13,18,13.90
2022,10,17,13,19,13.90
2022,10,17,13,20,13.90
2022,10,17,13,21,13.90
2022,10,17,13,22,13.90
2022,10,17,13,23,13.90
2022,10,17,13,24,13.80
2022,10,17,13,25,13.80
2022,10,17,13,26,13.80
2022,10,17,13,27,13.80
2022,10,17,13,28,13.80
2022,10,17,13,29,13.80
2022,10,17,13,30,13.80
2022,10,17,13,31,13.80
2022,10,17,13,32,13.80
2022,10,17,13,33,13.80
2022,10,17,13,34,13.80
2022,10,17,13,35,13.80
2022,10,17,13,36,13.80
2022,10,17,13,37,13.70
2022,10,17,13,38,13.70
2022,10,17,13,39,13.70
2022,10,17,13,40,13.70
2022,10,17,13,41,13.70
2022,10,17,13,42,13.70
2022,10,17,13,43,13.70
2022,10,17,13,44,13.70
2022,10,17,13,45,13.80
2022,10,17,13,46,13.80
2022,10,17,13,47,13.80
2022,10,17,13,48,13.80
2022,10,17,13,49,13.80
2022,10,17,13,50,13.80
2022,10,17,13,51,13.80
2022,10,17,13,52,13.80
2022,10,17,13,53,13.90
2022,10,17,13,54,13.90
2022,10,17,13,55,13.90
2022,10,17,13,56,13.90
2022,10,17,13,57,13.90
2022,10,17,13,58,13.90
2022,10,17,13,59,13.90
2022,10,17,14,00,13.90
2022,10,17,14,01,13.80
2022,10,17,14,02,13.90
2022,10,17,14,03,13.90
2022,10,17,14,04,13.90
2022,10,17,14,05,13.90
2022,10,17,14,06,13.90
2022,10,17,14,07,13.80
2022,10,17,14,08,13.80
2022,10,17,14,09,13.80
2022,10,17,14,10,13.80
2022,10,17,14,11,13.80
2022,10,17,14,12,13.70
2022,10,17,14,13,13.70
2022,10,17,14,14,13.70
2022,10,17,14,15,13.70
2022,10,17,14,16,13.70
2022,10,17,14,17,13.70
2022,10,17,14,18,13.70
2022,10,17,14,19,13.70
2022,10,17,14,20,13.70
2022,10,17,14,21,13.70
2022,10,17,14,22,13.70
2022,10,17,14,23,13.70
2022,10,17,14,24,13.70
2022,10,17,14,25,13.80
2022,10,17,14,26,13.80
2022,10,17,14,27,13.80
2022,10,17,14,28,13.80
2022,10,17,14,29,13.80
2022,10,17,14,30,13.70
2022,10,17,14,31,13.70
2022,10,17,14,32,13.70
2022,10,17,14,33,13.70
2022,10,17,14,34,13.70
2022,10,17,14,35,13.70
2022,10,17,14,36,13.70
2022,10,17,14,37,13.70
2022,10,17,14,38,13.70
2022,10,17,14,39,13.70
2022,10,17,14,40,13.60
2022,10,17,14,41,13.60
2022,10,17,14,42,13.60
2022,10,17,14,43,13.60
2022,10,17,14,44,13.60
2022,10,17,14,45,13.50
2022,10,17,14,46,13.50
2022,10,17,14,47,13.50
2022,10,17,14,48,13.60
2022,10,17,14,49,13.60
2022,10,17,14,50,13.60
2022,10,17,14,51,13.60
2022,10,17,14,52,13.50
2022,10,17,14,53,13.50
2022,10,17,14,54,13.50
2022,10,17,14,55,13.50
2022,10,17,14,56,13.50
2022,10,17,14,57,13.40
2022,10,17,14,58,13.40
2022,10,17,14,59,13.40
2022,10,17,15,00,13.40
2022,10,17,15,01,13.40
2022,10,17,15,02,13.40
2022,10,17,15,03,13.40
2022,10,17,15,04,13.40
2022,10,17,15,05,13.30
2022,10,17,15,06,13.30
2022,10,17,15,07,13.30
2022,10,17,15,08,13.30
2022,10,17,15,09,13.30
2022,10,17,15,10,13.30
2022,10,17,15,11,13.20
2022,10,17,15,12,13.20
2022,10,17,15,13,13.20
2022,10,17,15,14,13.20
2022,10,17,15,15,13.20
2022,10,17,15,16,13.10
2022,10,17,15,17,13.10
2022,10,17,15,18,13.10
2022,10,17,15,19,13.10
2022,10,17,15,20,13.10
2022,10,17,15,21,13.10
2022,10,17,15,22,13.10
2022,10,17,15,23,13.10
2022,10,17,15,24,13.20
2022,10,17,15,25,13.20
2022,10,17,15,26,13.30
2022,10,17,15,27,13.30
2022,10,17,15,28,13.30
2022,10,17,15,29,13.30
2022,10,17,15,30,13.30
2022,10,17,15,31,13.40
2022,10,17,15,32,13.40
2022,10,17,15,33,13.40
2022,10,17,15,34,13.40
2022,10,17,15,35,13.30
2022,10,17,15,36,13.30
2022,10,17,15,37,13.30
2022,10,17,15,38,13.30
2022,10,17,15,39,13.30
2022,10,17,15,40,13.30
2022,10,17,15,41,13.30
2022,10,17,15,42,13.30
2022,10,17,15,43,13.30
2022,10,17,15,44,13.30
2022,10,17,15,45,13.30
2022,10,17,15,46,13.30
2022,10,17,15,47,13.30
2022,10,17,15,48,13.40
2022,10,17,15,49,13.40
2022,10,17,15,50,13.40
2022,10,17,15,51,13.40
2022,10,17,15,52,13.40
2022,10,17,15,53,13.40
2022,10,17,15,54,13.40
2022,10,17,15,55,13.50
2022,10,17,15,56,13.50
2022,10,17,15,57,13.50
2022,10,17,15,58,13.50
2022,10,17,15,59,13.50
2022,10,17,16,00,13.50
2022,10,17,16,01,13.50
2022,10,17,16,02,13.40
2022,10,17,16,03,13.40
2022,10,17,16,04,13.40
2022,10,17,16,05,13.30
2022,10,17,16,06,13.40
2022,10,17,16,07,13.40
2022,10,17,16,08,13.40
2022,10,17,16,09,13.40
2022,10,17,16,10,13.40
2022,10,17,16,11,13.40
2022,10,17,16,12,13.40
2022,10,17,16,13,13.40
2022,10,17,16,14,13.40
2022,10,17,16,15,13.40
2022,10,17,16,16,13.40
2022,10,17,16,17,13.40
2022,10,17,16,18,13.40
2022,10,17,16,19,13.40
2022,10,17,16,20,13.50
2022,10,17,16,21,13.50
2022,10,17,16,22,13.50
2022,10,17,16,23,13.60
2022,10,17,16,24,13.60
2022,10,17,16,25,13.60
2022,10,17,16,26,13.60
2022,10,17,16,27,13.60
2022,10,17,16,28,13.60
2022,10,17,16,29,13.60
2022,10,17,16,30,13.60
2022,10,17,16,31,13.60
2022,10,17,16,32,13.60
2022,10,17,16,33,13.60
2022,10,17,16,34,13.60
2022,10,17,16,35,13.60
2022,10,17,16,36,13.60
2022,10,17,16,37,13.60
2022,10,17,16,38,13.60
2022,10,17,16,39,13.60
2022,10,17,16,40,13.60
2022,10,17,16,41,13.60
2022,10,17,16,42,13.60
2022,10,17,16,43,13.70
2022,10,17,16,44,13.70
2022,10,17,16,45,13.70
2022,10,17,16,46,13.70
2022,10,17,16,47,13.70
2022,10,17,16,48,13.80
2022,10,17,16,49,13.80
2022,10,17,16,50,13.80
2022,10,17,16,51,13.90
2022,10,17,16,52,13.90
2022,10,17,16,53,13.90
2022,10,17,16,54,13.90
2022,10,17,16,55,13.90
2022,10,17,16,56,14.00
2022,10,17,16,57,14.00
2022,10,17,16,58,14.00
2022,10,17,16,59,14.00
2022,10,17,17,00,14.00
2022,10,17,17,01,14.00
2022,10,17,17,02,14.00
2022,10,17,17,03,14.10
2022,10,17,17,04,14.10
2022,10,17,17,05,14.10
2022,10,17,17,06,14.10
2022,10,17,17,07,14.10
2022,10,17,17,08,14.10
2022,10,17,17,09,14.20
2022,10,17,17,10,14.20
2022,10,17,17,11,14.20
2022,10,17,17,12,14.20
2022,10,17,17,13,14.20
2022,10,17,17,14,14.20
2022,10,17,17,15,14.20
2022,10,17,17,16,14.30
2022,10,17,17,17,14.30
2022,10,17,17,18,14.30
2022,10,17,17,19,14.30
2022,10,17,17,20,14.30
2022,10,17,17,21,14.30
2022,10,17,17,22,14.40
2022,10,17,17,23,14.40
2022,10,17,17,24,14.40
2022,10,17,17,25,14.40
2022,10,17,17,26,14.40